Time,TemperatureF,DewpointF,PressureIn,WindDirection,WindDirectionDegrees,WindSpeedMPH,WindSpeedGustMPH,Humidity,HourlyPrecipIn,Conditions,Clouds,dailyrainin,SolarRadiationWatts/m^2,SoftwareType,DateUTC
2013-01-01 00:02:00,-9.0,-15.0,-100.00,NW,321,1.0,4.0,73,0.00,,,0.00,0.000000,,2013-01-01 06:02:00,
2013-01-01 00:33:00,-9.0,-15.0,-100.00,NW,321,1.0,4.0,73,0.00,,,0.00,0.000000,,2013-01-01 06:33:00,
2013-01-01 00:42:00,-9.0,-15.0,-100.00,NW,321,1.0,4.0,73,0.00,,,0.00,0.000000,,2013-01-01 06:42:00,
2013-01-01 00:52:00,-9.0,-15.0,-100.00,NW,321,1.0,4.0,73,0.00,,,0.00,0.000000,,2013-01-01 06:52:00,
2013-01-01 01:02:00,-9.0,-15.0,-100.00,NW,310,1.0,2.0,73,-99.99,,,-99.99,0.000000,,2013-01-01 07:02:00,
2013-01-01 01:22:00,-9.0,-15.0,-100.00,NW,310,1.0,2.0,73,-99.99,,,-99.99,0.000000,,2013-01-01 07:22:00,
2013-01-01 01:32:00,-9.0,-15.0,-100.00,NW,310,1.0,2.0,73,-99.99,,,-99.99,0.000000,,2013-01-01 07:32:00,
2013-01-01 01:42:00,-9.0,-15.0,-100.00,NW,310,1.0,2.0,73,-99.99,,,-99.99,0.000000,,2013-01-01 07:42:00,
2013-01-01 01:52:00,-9.0,-15.0,-100.00,NW,310,1.0,2.0,73,-99.99,,,-99.99,0.000000,,2013-01-01 07:52:00,
2013-01-01 02:02:00,-9.0,-15.0,-100.00,NW,313,2.0,3.0,73,0.00,,,-99.99,0.000000,,2013-01-01 08:02:00,
2013-01-01 02:32:00,-9.0,-15.0,-100.00,NW,313,2.0,3.0,73,0.00,,,-99.99,0.000000,,2013-01-01 08:32:00,
2013-01-01 02:42:00,-9.0,-15.0,-100.00,NW,313,2.0,3.0,73,0.00,,,-99.99,0.000000,,2013-01-01 08:42:00,
2013-01-01 02:53:00,-9.0,-15.0,-100.00,NW,313,2.0,3.0,73,0.00,,,-99.99,0.000000,,2013-01-01 08:53:00,
2013-01-01 03:02:00,-10.0,-18.0,-100.00,WSW,249,0.0,3.0,68,0.00,,,-99.99,0.000000,,2013-01-01 09:02:00,
2013-01-01 03:22:00,-10.0,-18.0,-100.00,WSW,249,0.0,3.0,68,0.00,,,-99.99,0.000000,,2013-01-01 09:22:00,
2013-01-01 03:32:00,-10.0,-18.0,-100.00,WSW,249,0.0,3.0,68,0.00,,,-99.99,0.000000,,2013-01-01 09:32:00,
2013-01-01 03:42:00,-10.0,-18.0,-100.00,WSW,249,0.0,3.0,68,0.00,,,-99.99,0.000000,,2013-01-01 09:42:00,
2013-01-01 03:52:00,-10.0,-18.0,-100.00,WSW,249,0.0,3.0,68,0.00,,,-99.99,0.000000,,2013-01-01 09:52:00,
2013-01-01 04:02:00,-14.0,-21.0,-100.00,West,271,0.0,2.0,68,0.00,,,-99.99,0.000000,,2013-01-01 10:02:00,
2013-01-01 04:33:00,-14.0,-21.0,-100.00,West,271,0.0,2.0,68,0.00,,,-99.99,0.000000,,2013-01-01 10:33:00,
2013-01-01 04:43:00,-14.0,-21.0,-100.00,West,271,0.0,2.0,68,0.00,,,-99.99,0.000000,,2013-01-01 10:43:00,
2013-01-01 04:53:00,-14.0,-21.0,-100.00,West,271,0.0,2.0,68,0.00,,,-99.99,0.000000,,2013-01-01 10:53:00,
2013-01-01 05:02:00,-15.0,-22.0,-100.00,West,266,0.0,2.0,68,0.00,,,-99.99,0.000000,,2013-01-01 11:02:00,
2013-01-01 05:23:00,-15.0,-22.0,-100.00,West,266,0.0,2.0,68,0.00,,,-99.99,0.000000,,2013-01-01 11:23:00,
2013-01-01 05:33:00,-15.0,-22.0,-100.00,West,266,0.0,2.0,68,0.00,,,-99.99,0.000000,,2013-01-01 11:33:00,
2013-01-01 05:43:00,-15.0,-22.0,-100.00,West,266,0.0,2.0,68,0.00,,,-99.99,0.000000,,2013-01-01 11:43:00,
2013-01-01 05:53:00,-15.0,-22.0,-100.00,West,266,0.0,2.0,68,0.00,,,-99.99,0.000000,,2013-01-01 11:53:00,
2013-01-01 06:02:00,-16.0,-24.0,-100.00,NW,307,0.0,2.0,67,0.00,,,-99.99,0.000000,,2013-01-01 12:02:00,
2013-01-01 06:33:00,-16.0,-24.0,-100.00,NW,307,0.0,2.0,67,0.00,,,-99.99,0.000000,,2013-01-01 12:33:00,
2013-01-01 06:43:00,-16.0,-24.0,-100.00,NW,307,0.0,2.0,67,0.00,,,-99.99,0.000000,,2013-01-01 12:43:00,
2013-01-01 06:53:00,-16.0,-24.0,-100.00,NW,307,0.0,2.0,67,0.00,,,-99.99,0.000000,,2013-01-01 12:53:00,
2013-01-01 07:02:00,-17.0,-25.0,-100.00,ESE,110,0.0,1.0,66,0.00,,,-99.99,0.000000,,2013-01-01 13:02:00,
2013-01-01 07:33:00,-17.0,-25.0,-100.00,ESE,110,0.0,1.0,66,0.00,,,-99.99,0.000000,,2013-01-01 13:33:00,
2013-01-01 07:43:00,-17.0,-25.0,-100.00,ESE,110,0.0,1.0,66,0.00,,,-99.99,0.000000,,2013-01-01 13:43:00,
2013-01-01 07:53:00,-17.0,-25.0,-100.00,ESE,110,0.0,1.0,66,0.00,,,-99.99,0.000000,,2013-01-01 13:53:00,
2013-01-01 08:02:00,-16.0,-24.0,-100.00,SSE,148,0.0,2.0,66,0.00,,,-99.99,3.000000,,2013-01-01 14:02:00,
2013-01-01 08:33:00,-16.0,-24.0,-100.00,SSE,148,0.0,2.0,66,0.00,,,-99.99,3.000000,,2013-01-01 14:33:00,
2013-01-01 08:43:00,-16.0,-24.0,-100.00,SSE,148,0.0,2.0,66,0.00,,,-99.99,3.000000,,2013-01-01 14:43:00,
2013-01-01 08:53:00,-16.0,-24.0,-100.00,SSE,148,0.0,2.0,66,0.00,,,-99.99,3.000000,,2013-01-01 14:53:00,
2013-01-01 09:02:00,-3.0,-10.0,-100.00,WSW,250,2.0,5.0,70,0.00,,,-99.99,75.000000,,2013-01-01 15:02:00,
2013-01-01 09:33:00,-3.0,-10.0,-100.00,WSW,250,2.0,5.0,70,0.00,,,-99.99,75.000000,,2013-01-01 15:33:00,
2013-01-01 09:43:00,-3.0,-10.0,-100.00,WSW,250,2.0,5.0,70,0.00,,,-99.99,75.000000,,2013-01-01 15:43:00,
2013-01-01 09:53:00,-3.0,-10.0,-100.00,WSW,250,2.0,5.0,70,0.00,,,-99.99,75.000000,,2013-01-01 15:53:00,
2013-01-01 10:02:00,4.0,-5.0,-100.00,West,270,3.0,9.0,66,0.00,,,-99.99,239.000000,,2013-01-01 16:02:00,
2013-01-01 10:33:00,4.0,-5.0,-100.00,West,270,3.0,9.0,66,0.00,,,-99.99,239.000000,,2013-01-01 16:33:00,
2013-01-01 10:43:00,4.0,-5.0,-100.00,West,270,3.0,9.0,66,0.00,,,-99.99,239.000000,,2013-01-01 16:43:00,
2013-01-01 10:53:00,4.0,-5.0,-100.00,West,270,3.0,9.0,66,0.00,,,-99.99,239.000000,,2013-01-01 16:53:00,
2013-01-01 11:02:00,9.0,-2.0,-100.00,SW,230,4.0,9.0,60,0.00,,,-99.99,354.000000,,2013-01-01 17:02:00,
2013-01-01 11:33:00,9.0,-2.0,-100.00,SW,230,4.0,9.0,60,0.00,,,-99.99,354.000000,,2013-01-01 17:33:00,
2013-01-01 11:43:00,9.0,-2.0,-100.00,SW,230,4.0,9.0,60,0.00,,,-99.99,354.000000,,2013-01-01 17:43:00,
2013-01-01 11:53:00,9.0,-2.0,-100.00,SW,230,4.0,9.0,60,0.00,,,-99.99,354.000000,,2013-01-01 17:53:00,
2013-01-01 12:02:00,12.0,-2.0,-100.00,SW,227,6.0,12.0,52,0.00,,,-99.99,435.000000,,2013-01-01 18:02:00,
2013-01-01 12:33:00,12.0,-2.0,-100.00,SW,227,6.0,12.0,52,0.00,,,-99.99,435.000000,,2013-01-01 18:33:00,
2013-01-01 12:43:00,12.0,-2.0,-100.00,SW,227,6.0,12.0,52,0.00,,,-99.99,435.000000,,2013-01-01 18:43:00,
2013-01-01 12:53:00,12.0,-2.0,-100.00,SW,227,6.0,12.0,52,0.00,,,-99.99,435.000000,,2013-01-01 18:53:00,
2013-01-01 13:02:00,15.0,-3.0,-100.00,SW,234,5.0,10.0,43,0.00,,,-99.99,448.000000,,2013-01-01 19:02:00,
2013-01-01 13:33:00,15.0,-3.0,-100.00,SW,234,5.0,10.0,43,0.00,,,-99.99,448.000000,,2013-01-01 19:33:00,
2013-01-01 13:43:00,15.0,-3.0,-100.00,SW,234,5.0,10.0,43,0.00,,,-99.99,448.000000,,2013-01-01 19:43:00,
2013-01-01 13:53:00,15.0,-3.0,-100.00,SW,234,5.0,10.0,43,0.00,,,-99.99,448.000000,,2013-01-01 19:53:00,
2013-01-01 14:02:00,15.0,-4.0,-100.00,WSW,237,5.0,11.0,42,0.00,,,-99.99,396.000000,,2013-01-01 20:02:00,
2013-01-01 14:23:00,15.0,-4.0,-100.00,WSW,237,5.0,11.0,42,0.00,,,-99.99,396.000000,,2013-01-01 20:23:00,
2013-01-01 14:32:00,15.0,-4.0,-100.00,WSW,237,5.0,11.0,42,0.00,,,-99.99,396.000000,,2013-01-01 20:32:00,
2013-01-01 14:42:00,15.0,-4.0,-100.00,WSW,237,5.0,11.0,42,0.00,,,-99.99,396.000000,,2013-01-01 20:42:00,
2013-01-01 14:53:00,15.0,-4.0,-100.00,WSW,237,5.0,11.0,42,0.00,,,-99.99,396.000000,,2013-01-01 20:53:00,
2013-01-01 15:02:00,14.0,-3.0,-100.00,SW,228,8.0,17.0,46,0.00,,,-99.99,291.000000,,2013-01-01 21:02:00,
2013-01-01 15:33:00,14.0,-3.0,-100.00,SW,228,8.0,17.0,46,0.00,,,-99.99,291.000000,,2013-01-01 21:33:00,
2013-01-01 15:42:00,14.0,-3.0,-100.00,SW,228,8.0,17.0,46,0.00,,,-99.99,291.000000,,2013-01-01 21:42:00,
2013-01-01 15:53:00,14.0,-3.0,-100.00,SW,228,8.0,17.0,46,0.00,,,-99.99,291.000000,,2013-01-01 21:53:00,
2013-01-01 16:02:00,10.0,3.0,-100.00,SW,234,4.0,15.0,71,0.00,,,-99.99,65.000000,,2013-01-01 22:02:00,
2013-01-01 16:33:00,10.0,3.0,-100.00,SW,234,4.0,15.0,71,0.00,,,-99.99,65.000000,,2013-01-01 22:33:00,
2013-01-01 16:43:00,10.0,3.0,-100.00,SW,234,4.0,15.0,71,0.00,,,-99.99,65.000000,,2013-01-01 22:43:00,
2013-01-01 16:52:00,10.0,3.0,-100.00,SW,234,4.0,15.0,71,0.00,,,-99.99,65.000000,,2013-01-01 22:52:00,
2013-01-01 17:02:00,10.0,4.0,-100.00,SW,232,3.0,10.0,77,0.00,,,-99.99,4.000000,,2013-01-01 23:02:00,
2013-01-01 17:22:00,10.0,4.0,-100.00,SW,232,3.0,10.0,77,0.00,,,-99.99,4.000000,,2013-01-01 23:22:00,
2013-01-01 17:33:00,10.0,4.0,-100.00,SW,232,3.0,10.0,77,0.00,,,-99.99,4.000000,,2013-01-01 23:33:00,
2013-01-01 17:42:00,10.0,4.0,-100.00,SW,232,3.0,10.0,77,0.00,,,-99.99,4.000000,,2013-01-01 23:42:00,
2013-01-01 17:53:00,10.0,4.0,-100.00,SW,232,3.0,10.0,77,0.00,,,-99.99,4.000000,,2013-01-01 23:53:00,
2013-01-01 18:02:00,11.0,6.0,-100.00,SW,235,5.0,12.0,79,0.00,,,-99.99,0.000000,,2013-01-02 00:02:00,
2013-01-01 18:32:00,11.0,6.0,-100.00,SW,235,5.0,12.0,79,0.00,,,-99.99,0.000000,,2013-01-02 00:32:00,
2013-01-01 18:43:00,11.0,6.0,-100.00,SW,235,5.0,12.0,79,0.00,,,-99.99,0.000000,,2013-01-02 00:43:00,
2013-01-01 18:53:00,11.0,6.0,-100.00,SW,235,5.0,12.0,79,0.00,,,-99.99,0.000000,,2013-01-02 00:53:00,
2013-01-01 19:02:00,11.0,6.0,-100.00,SW,233,3.0,14.0,80,0.00,,,-99.99,0.000000,,2013-01-02 01:02:00,
2013-01-01 19:22:00,11.0,6.0,-100.00,SW,233,3.0,14.0,80,0.00,,,-99.99,0.000000,,2013-01-02 01:22:00,
2013-01-01 19:33:00,11.0,6.0,-100.00,SW,233,3.0,14.0,80,0.00,,,-99.99,0.000000,,2013-01-02 01:33:00,
2013-01-01 19:42:00,11.0,6.0,-100.00,SW,233,3.0,14.0,80,0.00,,,-99.99,0.000000,,2013-01-02 01:42:00,
2013-01-01 19:52:00,11.0,6.0,-100.00,SW,233,3.0,14.0,80,0.00,,,-99.99,0.000000,,2013-01-02 01:52:00,
2013-01-01 20:02:00,11.0,6.0,-100.00,SW,229,3.0,9.0,81,0.00,,,-99.99,0.000000,,2013-01-02 02:02:00,
2013-01-01 20:22:00,11.0,6.0,-100.00,SW,229,3.0,9.0,81,0.00,,,-99.99,0.000000,,2013-01-02 02:22:00,
2013-01-01 20:32:00,11.0,6.0,-100.00,SW,229,3.0,9.0,81,0.00,,,-99.99,0.000000,,2013-01-02 02:32:00,
2013-01-01 20:42:00,11.0,6.0,-100.00,SW,229,3.0,9.0,81,0.00,,,-99.99,0.000000,,2013-01-02 02:42:00,
2013-01-01 20:53:00,11.0,6.0,-100.00,SW,229,3.0,9.0,81,0.00,,,-99.99,0.000000,,2013-01-02 02:53:00,
2013-01-01 21:02:00,11.0,7.0,-100.00,SW,231,4.0,7.0,82,0.00,,,-99.99,0.000000,,2013-01-02 03:02:00,
2013-01-01 21:32:00,11.0,7.0,-100.00,SW,231,4.0,7.0,82,0.00,,,-99.99,0.000000,,2013-01-02 03:32:00,
2013-01-01 21:42:00,11.0,7.0,-100.00,SW,231,4.0,7.0,82,0.00,,,-99.99,0.000000,,2013-01-02 03:42:00,
2013-01-01 21:53:00,11.0,7.0,-100.00,SW,231,4.0,7.0,82,0.00,,,-99.99,0.000000,,2013-01-02 03:53:00,
2013-01-01 22:02:00,11.0,7.0,-100.00,SW,218,3.0,8.0,83,0.00,,,-99.99,0.000000,,2013-01-02 04:02:00,
2013-01-01 22:32:00,11.0,7.0,-100.00,SW,218,3.0,8.0,83,0.00,,,-99.99,0.000000,,2013-01-02 04:32:00,
2013-01-01 22:42:00,11.0,7.0,-100.00,SW,218,3.0,8.0,83,0.00,,,-99.99,0.000000,,2013-01-02 04:42:00,
2013-01-01 22:52:00,11.0,7.0,-100.00,SW,218,3.0,8.0,83,0.00,,,-99.99,0.000000,,2013-01-02 04:52:00,
2013-01-01 23:02:00,11.0,7.0,-100.00,SSW,198,3.0,7.0,82,0.00,,,-99.99,0.000000,,2013-01-02 05:02:00,
2013-01-01 23:33:00,11.0,7.0,-100.00,SSW,198,3.0,7.0,82,0.00,,,-99.99,0.000000,,2013-01-02 05:33:00,
2013-01-01 23:43:00,11.0,7.0,-100.00,SSW,198,3.0,7.0,82,0.00,,,-99.99,0.000000,,2013-01-02 05:43:00,
2013-01-01 23:53:00,11.0,7.0,-100.00,SSW,198,3.0,7.0,82,0.00,,,-99.99,0.000000,,2013-01-02 05:53:00,